Back to catalog

TITAN 3C TRANSTAGE DEB

LostMEO
NORAD 43452·DEBRIS·🇺🇸 United States

Launched Feb 9, 1969 from Cape Canaveral Space Force Station

Loading…

Next Passes (next 24 hours)

TLE

StaleSource: Space-Track

Epoch: Jan 11, 2026, 13:08 UTC

1 43452U 69013K   26011.54725160 -.00000224  00000-0  00000-0 0  9996
2 43452   0.7943 136.6414 0549795 335.1951 254.1098  1.03158731 29171

Track TITAN 3C TRANSTAGE DEB in real time with AllMySat

Download on the App Store